NAYIF-1 (EO-88) (42017 NORAD) Tracking and Keplerian Element Data

This shows tracking and keplerian element data for the satellite.

Feedback or suggestion? Click here.




ElementValue
Catalog42017
NameNAYIF-1 (EO-88)
Epoch Orbit9763
Epoch Day322.85223454
Epoch Year2018
RAAN26.882
Inclination97.4315
Eccentricity0.0006186
Argument of Perigee181.1526
Mean Anonmoly178.9698
Mean Motion15.24905333
Decay Rate1.575E-05
L11 42017U 17008BX 18322.85223454 .00001575 00000-0 66206-4 0 9991
L22 42017 97.4315 26.8820 0006186 181.1526 178.9698 15.24905333 97634

Live tracking and technical data element details for NAYIF-1 (EO-88) (NORAD 42017). NAYIF-1 (EO-88) can be tracked NOW for your location showing map with azimuth and elevation plus other details from your city location.

Track the satellite on the map from your city or location and see movement details for azimuth, elevation, latitude, longitude, range, height, and movement on the map or in text.







IsCatalogInMostPopularTable: catalog: 42017, numindb: 161
Update: records affected: 1



GetName: 42017 NAYIF-1 (EO-88)

Hit Count: updated at: Mon, 19 Nov 2018 13:37:02 GMT